Weather History for KDLS - May, 2013

Change the Weather History Date:

Saturday, May 4, 2013

  Actual Average Record
Temperature  
Mean Temperature 63 °F -  
Max Temperature 84 °F 72 °F 95 °F (1966)
Min Temperature 42 °F 44 °F 32 °F (1999)
Degree Days  
Heating Degree Days 2    
Growing Degree Days 13 (Base 50)    
Moisture  
Dew Point 34 °F    
Average Humidity 39    
Maximum Humidity 79    
Minimum Humidity 14    
Precipitation  
Precipitation 0.00 in - - ()
Sea Level Pressure  
Sea Level Pressure 30.07 in    
Wind  
Wind Speed 5 mph (ENE)    
Max Wind Speed 20 mph    
Max Gust Speed 32 mph    
Visibility 10 miles    
Events      
Averages and records for this station are not official NWS values.
T = Trace of Precipitation, MM = Missing Value Source: NWS Daily Summary

Daily Weather History Graph

Daily Weather History Graph

Search for Another Location

Airport or City:

Trip Planner

Search our weather history database for the weather conditions in past years. The results will help you decide how hot, cold, wet, or windy it might be!

Date:

Astronomy

May. 04, 2013 Rise Set
Actual Time 5:47 AM PDT 8:16 PM PDT
Civil Twilight 5:14 AM PDT 8:49 PM PDT
Nautical Twilight 4:32 AM PDT 9:31 PM PDT
Astronomical Twilight 3:45 AM PDT 10:18 PM PDT
Moon 3:04 AM PDT (5/4) 3:04 PM PDT (5/4)
Length of Visible Light 15h 35m
Length of Day
14h 28m
Waning Crescent, 26% of the Moon is Illuminated
May 4
Waning Crescent
May 9
New
May 17
First Quarter
May 24
Full
May 31
Last Quarter

Hourly Weather History & Observations

Time (PDT) Temp. Windchill Dew Point Humidity Pressure Visibility Wind Dir Wind Speed Gust Speed Precip Events Conditions
12:53 AM 53.1 °F - 39.0 °F 59% 30.15 in 10.0 mi Calm Calm - N/A   Clear
1:53 AM 48.9 °F - 37.9 °F 66% 30.15 in 10.0 mi ESE 6.9 mph - N/A   Clear
2:53 AM 48.0 °F - 37.9 °F 68% 30.15 in 10.0 mi Calm Calm - N/A   Clear
3:53 AM 46.9 °F - 37.9 °F 71% 30.16 in 10.0 mi Calm Calm - N/A   Clear
4:53 AM 44.1 °F - 37.9 °F 79% 30.16 in 10.0 mi Calm Calm - N/A   Clear
5:53 AM 42.1 °F 40.2 °F 36.0 °F 79% 30.17 in 10.0 mi ESE 3.5 mph - N/A   Clear
6:53 AM 46.9 °F - 37.9 °F 71% 30.18 in 10.0 mi Calm Calm - N/A   Clear
7:53 AM 54.0 °F - 41.0 °F 62% 30.18 in 10.0 mi Calm Calm - N/A   Clear
8:53 AM 59.0 °F - 39.9 °F 49% 30.17 in 10.0 mi West 3.5 mph - N/A   Clear
9:53 AM 68.0 °F - 39.9 °F 36% 30.15 in 10.0 mi SW 3.5 mph - N/A   Clear
10:53 AM 73.9 °F - 36.0 °F 25% 30.13 in 10.0 mi East 5.8 mph - N/A   Clear
11:53 AM 80.1 °F - 33.1 °F 18% 30.10 in 10.0 mi East 12.7 mph 21.9 mph N/A   Clear
12:53 PM 80.1 °F - 30.9 °F 17% 30.07 in 10.0 mi East 13.8 mph 27.6 mph N/A   Clear
1:53 PM 82.0 °F - 30.9 °F 16% 30.04 in 10.0 mi ENE 19.6 mph 32.2 mph N/A   Clear
2:53 PM 81.0 °F - 30.9 °F 16% 30.02 in 10.0 mi NE 15.0 mph 28.8 mph N/A   Clear
3:53 PM 81.0 °F - 30.0 °F 16% 29.99 in 10.0 mi ENE 19.6 mph 26.5 mph N/A   Partly Cloudy
4:53 PM 84.0 °F - 28.9 °F 14% 29.97 in 10.0 mi ENE 17.3 mph 28.8 mph N/A   Clear
5:53 PM 82.0 °F - 28.0 °F 14% 29.96 in 10.0 mi NE 19.6 mph 27.6 mph N/A   Clear
6:53 PM 80.1 °F - 28.0 °F 15% 29.95 in 10.0 mi NE 13.8 mph 25.3 mph N/A   Clear
7:53 PM 75.9 °F - 28.9 °F 18% 29.95 in 10.0 mi ENE 9.2 mph 23.0 mph N/A   Clear
8:53 PM 71.1 °F - 32.0 °F 24% 29.96 in 10.0 mi Calm Calm - N/A   Clear
9:53 PM 63.0 °F - 30.9 °F 30% 29.96 in 10.0 mi Calm Calm - N/A   Clear
10:53 PM 63.0 °F - 34.0 °F 34% 29.96 in 10.0 mi WSW 4.6 mph - N/A   Clear
11:53 PM 60.1 °F - 35.1 °F 39% 29.95 in 10.0 mi West 4.6 mph - N/A   Clear